Mankato, MN

3:06 PM CST on November 17, 2019 (GMT -0600)
Mankato Regional

Weather History for KMKT - May, 2019

Change the Weather History Date:

Tuesday, May 21, 2019

  Actual Average Record
Temperature  
Mean Temperature 51 °F -  
Max Temperature 57 °F 65 °F 84 °F (2007)
Min Temperature 45 °F 48 °F 37 °F (1997)
Degree Days  
Heating Degree Days 14    
Growing Degree Days 1 (Base 50)    
Moisture  
Dew Point 42 °F    
Average Humidity 79    
Maximum Humidity 97    
Minimum Humidity 49    
Precipitation  
Precipitation 0.58 in - - ()
Sea Level Pressure  
Sea Level Pressure 29.88 in    
Wind  
Wind Speed 16 mph (East)    
Max Wind Speed 34 mph    
Max Gust Speed 43 mph    
Visibility 8 miles    
Events Rain    
Averages and records for this station are not official NWS values.
T = Trace of Precipitation, MM = Missing Value Source: NWS Daily Summary

Daily Weather History Graph

Daily Weather History Graph

Search for Another Location

Airport or City:

Astronomy

May. 21, 2019 Rise Set
Actual Time 5:43 AM CDT 8:42 PM CDT
Civil Twilight 5:08 AM CDT 9:16 PM CDT
Nautical Twilight 4:25 AM CDT 10:00 PM CDT
Astronomical Twilight 3:33 AM CDT 10:52 PM CDT
Moon 11:40 PM CDT (5/21) 7:58 AM CDT (5/21)
Length of Visible Light 16h 07m
Length of Day
14h 58m
Waning Gibbous, 91% of the Moon is Illuminated
May 21
Waning Gibbous
May 26
Last Quarter
Jun 3
New
Jun 10
First Quarter
Jun 17
Full

Hourly Weather History & Observations

Time (CDT) Temp. Windchill Dew Point Humidity Pressure Visibility Wind Dir Wind Speed Gust Speed Precip Events Conditions
12:56 AM 51.1 °F - 42.1 °F 71% 30.12 in 10.0 mi ENE 5.8 mph - N/A   Clear
1:56 AM 48.9 °F - 42.1 °F 77% 30.10 in 10.0 mi East 5.8 mph - N/A   Clear
2:56 AM 48.9 °F - 41.0 °F 74% 30.08 in 10.0 mi East 8.1 mph - N/A   Clear
3:56 AM 48.9 °F - 41.0 °F 74% 30.07 in 10.0 mi ENE 8.1 mph - N/A   Clear
4:56 AM 48.0 °F - 39.9 °F 74% 30.06 in 10.0 mi East 6.9 mph - N/A   Clear
5:56 AM 48.9 °F - 39.9 °F 71% 30.08 in 10.0 mi East 8.1 mph - N/A   Clear
6:56 AM 48.9 °F - 41.0 °F 74% 30.07 in 10.0 mi East 8.1 mph - N/A   Clear
7:56 AM 48.9 °F - 42.1 °F 77% 30.07 in 10.0 mi East 9.2 mph - N/A   Clear
8:56 AM 52.0 °F - 39.9 °F 63% 30.05 in 10.0 mi East 17.3 mph 23.0 mph N/A   Clear
9:56 AM 54.0 °F - 41.0 °F 62% 30.05 in 10.0 mi ESE 19.6 mph 27.6 mph N/A   Clear
10:56 AM 55.0 °F - 41.0 °F 59% 30.00 in 10.0 mi East 26.5 mph 32.2 mph N/A   Scattered Clouds
11:56 AM 57.0 °F - 41.0 °F 55% 29.98 in 10.0 mi East 21.9 mph 32.2 mph N/A   Partly Cloudy
12:56 PM 55.9 °F - 37.0 °F 49% 29.96 in 10.0 mi East 23.0 mph 32.2 mph N/A   Overcast
1:56 PM 54.0 °F - 36.0 °F 51% 29.94 in 10.0 mi East 26.5 mph 34.5 mph N/A   Overcast
2:56 PM 53.1 °F - 37.9 °F 57% 29.92 in 10.0 mi East 23.0 mph 33.4 mph 0.00 in Rain Light Rain
5:56 PM 46.9 °F - 43.0 °F 86% 29.78 in 9.0 mi East 29.9 mph 38.0 mph 0.02 in Rain Light Rain
6:08 PM 46.4 °F 37.7 °F 44.6 °F 93% 29.76 in 4.0 mi East 26.5 mph 41.4 mph 0.01 in Rain Light Rain
6:39 PM 46.4 °F 37.0 °F 44.6 °F 93% 29.75 in 2.5 mi East 31.1 mph 40.3 mph 0.07 in Rain Heavy Rain
6:56 PM 46.0 °F 36.9 °F 44.1 °F 93% 29.77 in 2.0 mi East 28.8 mph 41.4 mph 0.14 in Rain Heavy Rain
7:05 PM 46.4 °F 37.5 °F 44.6 °F 93% 29.74 in 1.8 mi East 27.6 mph 36.8 mph 0.06 in Rain Heavy Rain
7:14 PM 46.4 °F 37.7 °F 44.6 °F 93% 29.73 in 2.0 mi East 26.5 mph 40.3 mph 0.10 in Rain Heavy Rain
7:21 PM 46.4 °F 36.5 °F 44.6 °F 93% 29.71 in 3.0 mi East 34.5 mph 41.4 mph 0.12 in Rain Rain
7:31 PM 46.4 °F 36.9 °F 44.6 °F 93% 29.72 in 5.0 mi East 32.2 mph 40.3 mph 0.14 in Rain Rain
7:56 PM 46.0 °F 36.4 °F 44.1 °F 93% 29.73 in 5.0 mi East 32.2 mph 42.6 mph 0.18 in Rain Rain
8:56 PM 45.0 °F 34.9 °F 44.1 °F 97% 29.67 in 5.0 mi East 32.2 mph 41.4 mph 0.12 in Rain Rain
9:56 PM 46.0 °F 37.2 °F 44.1 °F 93% 29.65 in 10.0 mi East 26.5 mph 39.1 mph 0.05 in   Overcast
10:56 PM 46.9 °F - 44.1 °F 90% 29.67 in 7.0 mi ESE 20.7 mph 29.9 mph 0.01 in Rain Rain
11:22 PM 46.4 °F 38.3 °F 44.6 °F 93% 29.63 in 7.0 mi East 23.0 mph 32.2 mph 0.04 in Rain Light Rain
11:56 PM 46.0 °F 37.2 °F 45.0 °F 96% 29.63 in 10.0 mi East 26.5 mph 33.4 mph 0.06 in Rain Light Rain